"Pseudo-MPEC" for ZTF02rx

Created 2019 Feb 20 14:18:12 UT using Find_Orb

Click here for an explanation of pseudo-MPECs

 
 Astrometry: 
     ZTF02rx  C2019 02 09.29484409 40 27.53 -02 29 48.5    ~29Lm 17.19RUNEOCPI41
     ZTF02rx  C2019 02 09.29519109 40 32.36 -02 30 51.5    ~29Lm 17.19RUNEOCPI41
     ZTF02rx  C2019 02 09.30067009 41 46.04 -02 47 20.1    ~29Lm 17.83RUNEOCPI41
     ZTF02rx  C2019 02 09.30101709 41 50.54 -02 48 19.7    ~29Lm 17.83RUNEOCPI41

Station data:
(I41) Palomar Mountain--ZTF  (N33.357340 W116.859780)  US/California. 1.2-m
   f/2.44 Oschin Schmidt + CCD.

Orbital elements:  ZTF02rx
   Perigee 2019 Feb 9.034694 +/- 37.9 TT =  0:49:57 (JD 2458523.534694)
Epoch 2019 Feb  9.0 TT = JDT 2458523.5                        AutoNEOCP
q 28789.6327 +/- 1.85e+7            (J2000 equator)
H   33.2  G 0.15                    Peri.   79.98061 +/- 59
                                    Node   323.85994 +/- 80
e   1.4153893 +/- 0.241             Incl.   35.67954 +/- 2.7
From 4 observations 2019 Feb. 9 (8.9 min); mean residual 0".61
Residuals in arcseconds: 
190209 I41  .52-  .31-    190209 I41  .55+  .93-    
190209 I41  .52+  .39+    190209 I41  .55-  .85+    

Ephemerides (geocentric):
Date (UTC) HH   RA              Dec         delta   r     elong  mag " sig PA
---- -- -- --  -------------   -----------  ------ ------ -----  --- ---- ---
2019 02 20 14  11 27 35.874   -18 18 27.39  .01753 1.0032 145.5 25.9  68d 179
2019 02 20 15  11 27 36.574   -18 18 26.63  .01759 1.0033 145.5 25.9  68d 179
2019 02 20 16  11 27 37.263   -18 18 25.76  .01765 1.0033 145.6 25.9  68d 179
2019 02 20 17  11 27 37.942   -18 18 24.79  .01771 1.0034 145.6 25.9  68d 179
2019 02 20 18  11 27 38.610   -18 18 23.72  .01777 1.0035 145.6 25.9  68d 179
2019 02 20 19  11 27 39.269   -18 18 22.54  .01783 1.0035 145.6 25.9  68d 179
2019 02 20 20  11 27 39.917   -18 18 21.27  .01789 1.0036 145.7 25.9  68d 179
2019 02 20 21  11 27 40.556   -18 18 19.90  .01795 1.0037 145.7 25.9  69d 179
2019 02 20 22  11 27 41.184   -18 18 18.43  .01801 1.0037 145.7 25.9  69d 179
2019 02 20 23  11 27 41.803   -18 18 16.87  .01807 1.0038 145.8 25.9  69d 179
2019 02 21 00  11 27 42.411   -18 18 15.20  .01813 1.0039 145.8 25.9  69d 179
2019 02 21 01  11 27 43.010   -18 18 13.44  .01820 1.0039 145.8 25.9  69d 179
2019 02 21 02  11 27 43.599   -18 18 11.58  .01826 1.0040 145.9 25.9  69d 179
2019 02 21 03  11 27 44.179   -18 18 09.62  .01832 1.0040 145.9 25.9  69d 179
2019 02 21 04  11 27 44.749   -18 18 07.57  .01838 1.0041 145.9 25.9  69d 179
2019 02 21 05  11 27 45.309   -18 18 05.42  .01844 1.0042 146.0 26.0  69d 179
2019 02 21 06  11 27 45.860   -18 18 03.18  .01850 1.0042 146.0 26.0  69d 179
2019 02 21 07  11 27 46.402   -18 18 00.84  .01856 1.0043 146.0 26.0  69d 179
2019 02 21 08  11 27 46.934   -18 17 58.41  .01862 1.0044 146.1 26.0  69d 179
2019 02 21 09  11 27 47.457   -18 17 55.88  .01868 1.0044 146.1 26.0  69d 179
2019 02 21 10  11 27 47.971   -18 17 53.26  .01874 1.0045 146.1 26.0  69d 179
2019 02 21 11  11 27 48.475   -18 17 50.55  .01880 1.0046 146.2 26.0  69d 179
2019 02 21 12  11 27 48.971   -18 17 47.74  .01886 1.0046 146.2 26.0  69d 179
2019 02 21 13  11 27 49.457   -18 17 44.84  .01892 1.0047 146.2 26.0  69d 179
2019 02 21 14  11 27 49.934   -18 17 41.85  .01898 1.0048 146.3 26.0  69d 179
2019 02 21 15  11 27 50.403   -18 17 38.76  .01904 1.0048 146.3 26.0  69d 179
2019 02 21 16  11 27 50.862   -18 17 35.59  .01910 1.0049 146.3 26.0  69d 179
2019 02 21 17  11 27 51.313   -18 17 32.32  .01916 1.0050 146.4 26.0  69d 179
2019 02 21 18  11 27 51.754   -18 17 28.96  .01922 1.0050 146.4 26.0  69d 179
2019 02 21 19  11 27 52.187   -18 17 25.51  .01928 1.0051 146.4 26.0  69d 179
2019 02 21 20  11 27 52.612   -18 17 21.97  .01934 1.0052 146.5 26.0  69d 179
2019 02 21 21  11 27 53.027   -18 17 18.35  .01940 1.0052 146.5 26.0  69d 179
2019 02 21 22  11 27 53.434   -18 17 14.63  .01946 1.0053 146.5 26.1  69d 179
2019 02 21 23  11 27 53.833   -18 17 10.82  .01952 1.0054 146.6 26.1  69d 179
2019 02 22 00  11 27 54.223   -18 17 06.92  .01958 1.0054 146.6 26.1  69d 179
2019 02 22 01  11 27 54.604   -18 17 02.94  .01965 1.0055 146.6 26.1  69d 179
2019 02 22 02  11 27 54.977   -18 16 58.86  .01971 1.0056 146.7 26.1  69d 179
2019 02 22 03  11 27 55.342   -18 16 54.70  .01977 1.0056 146.7 26.1  69d 179
2019 02 22 04  11 27 55.698   -18 16 50.45  .01983 1.0057 146.7 26.1  69d 179
2019 02 22 05  11 27 56.047   -18 16 46.11  .01989 1.0058 146.8 26.1  69d 179
2019 02 22 06  11 27 56.387   -18 16 41.68  .01995 1.0058 146.8 26.1  69d 179
2019 02 22 07  11 27 56.718   -18 16 37.17  .02001 1.0059 146.8 26.1  69d 179
2019 02 22 08  11 27 57.042   -18 16 32.57  .02007 1.0060 146.9 26.1  69d 179
2019 02 22 09  11 27 57.358   -18 16 27.88  .02013 1.0060 146.9 26.1  69d 179
2019 02 22 10  11 27 57.665   -18 16 23.11  .02019 1.0061 146.9 26.1  69d 179
2019 02 22 11  11 27 57.965   -18 16 18.25  .02025 1.0062 147.0 26.1  69d 179
2019 02 22 12  11 27 58.256   -18 16 13.31  .02031 1.0062 147.0 26.1  69d 179
2019 02 22 13  11 27 58.540   -18 16 08.28  .02037 1.0063 147.0 26.1  69d 179